Regional Weather Roundup
Issued by NWS

Home | Current Version | Previous Version | Graphics & Text | Print | Product List | Glossary Off
Versions: 1 2 3 4 5 6 7 8 9 10 11 12 13 14 15 16 17 18 19 20 21 22 23 24 25 26 27 28 29 30 31 32 33 34 35 36 37 38 39 40 41 42 43 44 45 46 47 48 49 50

000
ASUS45 KSLC 272310
RWRUT

UTAH REGIONAL WEATHER ROUNDUP
NATIONAL WEATHER SERVICE SALT LAKE CITY UT
500 PM MDT MON MAR 27 2017

UTZ001>011-023>025-280000-

NORTHERN UTAH

CITY           SKY/WX    TMP DP  RH WIND       PRES   REMARKS
BRIGHAM CITY     N/A     46  37  71 N14       29.88S
HILL AFB       LGT RAIN  43  41  93 N9        29.87R
LOGAN          CLOUDY    44  38  79 N3        29.90R
OGDEN          LGT RAIN  43  39  86 N7        29.86R
SALT LAKE CITY LGT RAIN  43  40  89 W3        29.87R
TOOELE VALLEY  CLOUDY    45  43  93 N10       29.88R
WENDOVER       PTSUNNY   51  28  41 NW17G30   29.90S
HEBER CITY     MIX PCPN  36  34  93 W6        29.84R WCI  31
WEST JORDAN    CLOUDY    45  45 100 N6        29.88R

$$

UTZ011>015-024>027-280000-

CENTRAL/NORTHEAST UTAH

CITY           SKY/WX    TMP DP  RH WIND       PRES   REMARKS
PROVO AIRPORT  LGT RAIN  41  38  89 VRB6      29.87S
MOAB/CANYONLAN MOSUNNY   64  30  27 SE7       29.68F
DELTA          CLOUDY    41  37  87 S3        29.87S
PRICE          CLOUDY    43  38  82 N3        29.79F
ROOSEVELT      CLOUDY    43  36  75 N8        29.84F
VERNAL         LGT RAIN  44  38  79 N7        29.82F

$$

UTZ013>016-019>022-027-280000-

SOUTHERN UTAH

CITY           SKY/WX    TMP DP  RH WIND       PRES   REMARKS
BRYCE CANYON   PTSUNNY   46  30  53 S12       29.80F
CEDAR CITY     SNOW      32  32 100 CALM      29.90R VSB 1/2
MILFORD        LGT SNOW  33  32  96 NW9       29.90R FOG     WCI  25
ST GEORGE      CLOUDY    56  35  45 NW15G21   29.82
HANKSVILLE     CLOUDY    59  30  33 W29G44    29.74R
BLANDING       MOSUNNY   53  31  42 CALM      29.87F

$$

REGIONAL REPORTS     COLORADO/ARIZONA

CITY           SKY/WX    TMP DP  RH WIND       PRES   REMARKS
CRAIG, CO      LGT RAIN  44  36  73 NW10      29.84R
GRAND JUNCTION PTSUNNY   60  28  29 VRB5      29.74F
RIFLE, CO      CLOUDY    62  26  25 SW16      29.76F
MONTROSE, CO   MOSUNNY   58  30  34 W15       29.79F
CORTEZ, CO     CLOUDY    57  29  34 W9        29.81F
COLORADO CITY    N/A     52  37  58 W24G36    29.85R
PAGE, AZ       MOSUNNY   65  27  23 VRB7      29.68F
GRAND CANYON   PTSUNNY   52  23  32 W14G28    29.82F
KINGMAN, AZ    PTSUNNY   66  14  13 SW21      29.81F
FLAGSTAFF, AZ  TSTM      42  35  76 W9G25     29.87F

$$

REGIONAL REPORTS    NEVADA/IDAHO/WYOMING

CITY           SKY/WX    TMP DP  RH WIND       PRES   REMARKS
LAS VEGAS, NV  PTSUNNY   69  27  20 N10       29.77F
ELY, NY        CLOUDY    41  28  60 NW16G22   29.92R
ELKO, NV       CLOUDY    46  31  55 MISG      30.01R
POCATELLO, ID  CLOUDY    48  37  65 SW13      29.93R
BURLEY, ID     PTSUNNY   49  29  46 W23G37    29.92S
FORT BRIDGER,  CLOUDY    41  33  73 E9        29.86
EVANSTON, WY   SNOW      32  30  92 N18       29.84S VSB<1/4 WCI  20
ROCK SPRINGS,  LGT RAIN  38  34  85 N7        29.84F WCI  33
KEMMERER, WY     N/A     36  32  87 W7        29.86R WCI  30

$$



USA.gov is the U.S. government's official web portal to all federal, state and local government web resources and services.